WB0OCV Weather Reports


time (UTC)temp
C
wind
direction
speed
KPH
gust
KPH
rain 1hr
cm
rain 24hr
cm
rain mn
cm
humidity
%
barometer
mb
20260507151356 13 184 3.2 4.8 0.00 0.74 0.74 77 1010.3
20260507150854 13 45 3.2 9.7 0.00 0.74 0.74 79 1010.4
20260507150350 12 167 1.6 4.8 0.00 0.74 0.74 85 1010.5
20260507145847 12 86 0.0 3.2 0.00 0.74 0.74 81 1010.2
20260507145343 12 79 1.6 3.2 0.00 0.74 0.74 86 1010.1
20260507144840 12 51 1.6 3.2 0.00 0.74 0.74 85 1010.1
20260507144337 11 121 0.0 1.6 0.00 0.74 0.74 89 1010.3
20260507143834 11 77 0.0 3.2 0.00 0.74 0.74 90 1010.3
20260507143331 11 155 1.6 1.6 0.00 0.74 0.74 90 1010.5
20260507142827 11 122 0.0 1.6 0.00 0.74 0.74 90 1010.4
20260507142323 11 19 0.0 3.2 0.00 0.74 0.74 90 1010.5
20260507141820 11 147 1.6 3.2 0.00 0.74 0.74 93 1010.5
20260507141317 10 133 0.0 0.0 0.00 0.74 0.74 93 1010.4
20260507140813 10 157 0.0 3.2 0.00 0.74 0.74 94 1010.5
20260507140310 10 148 0.0 1.6 0.00 0.74 0.74 94 1010.6
20260507135808 10 146 0.0 3.2 0.00 0.74 0.74 94 1010.6
20260507135306 10 34 1.6 4.8 0.00 0.74 0.74 94 1010.4
20260507134801 10 40 3.2 3.2 0.00 0.74 0.74 94 1010.3
20260507134258 10 120 0.0 0.0 0.00 0.74 0.74 95 1010.2
20260507133754 10 59 1.6 3.2 0.00 0.74 0.74 96 1010.3
20260507133250 10 190 3.2 3.2 0.00 0.74 0.74 96 1010.4
20260507132748 10 104 0.0 0.0 0.00 0.74 0.74 97 1010.3
20260507132245 10 124 0.0 0.0 0.00 0.74 0.74 97 1010.4
20260507131742 10 118 0.0 0.0 0.00 0.74 0.74 97 1010.1
20260507131239 9 107 0.0 1.6 0.00 0.74 0.74 97 1010.0
20260507130735 9 137 0.0 0.0 0.00 0.74 0.74 97 1010.0
20260507130233 9 64 0.0 0.0 0.00 0.74 0.74 97 1010.2
20260507125732 9 131 0.0 0.0 0.13 0.74 0.74 97 1010.1
20260507125229 9 131 0.0 0.0 0.13 0.74 0.74 97 1010.4
20260507124725 8 146 0.0 1.6 0.00 0.71 0.71 97 1010.8
20260507124222 8 126 0.0 4.8 0.00 0.71 0.71 97 1010.5
20260507123721 9 90 0.0 0.0 0.18 0.71 0.71 98 1010.6
20260507123218 8 132 1.6 1.6 0.18 0.71 0.71 98 1010.8
20260507122713 8 125 0.0 0.0 0.00 0.69 0.69 98 1010.5
20260507122209 8 127 0.0 0.0 0.00 0.69 0.69 98 1010.7
20260507121705 8 138 0.0 1.6 0.13 0.69 0.69 97 1010.5
20260507121201 8 105 0.0 1.6 0.13 0.69 0.69 97 1010.2
20260507120657 8 123 0.0 3.2 0.00 0.66 0.66 97 1010.1
20260507120154 8 120 0.0 4.8 0.00 0.66 0.66 97 1010.3
20260507115650 9 197 1.6 3.2 0.00 0.66 0.66 97 1010.5
20260507115146 9 77 4.8 6.4 0.00 0.66 0.66 97 1010.5
20260507114642 9 39 1.6 4.8 0.00 0.66 0.66 98 1010.2
20260507114140 9 27 4.8 9.7 0.00 0.66 0.66 98 1010.2
20260507113637 9 111 0.0 4.8 0.00 0.66 0.66 98 1010.4
20260507113133 9 138 1.6 1.6 0.18 0.66 0.66 98 1010.5
20260507112632 10 138 1.6 6.4 0.00 0.64 0.64 98 1010.7
20260507112128 10 118 0.0 1.6 0.00 0.64 0.64 99 1010.7
20260507111626 10 262 3.2 3.2 0.00 0.64 0.64 98 1010.4
20260507111122 10 88 1.6 3.2 0.00 0.64 0.64 98 1009.8
20260507110618 10 221 1.6 6.4 0.00 0.64 0.64 98 1009.5
20260507110115 10 232 1.6 3.2 0.13 0.64 0.64 99 1009.3
20260507105612 10 89 1.6 3.2 0.13 0.64 0.64 99 1009.3
20260507105107 10 152 1.6 1.6 0.18 0.61 0.61 99 1009.4
20260507104606 10 124 0.0 1.6 0.30 0.61 0.61 99 1009.5
20260507104102 10 31 0.0 3.2 0.13 0.58 0.58 99 1009.4
20260507103558 10 133 0.0 1.6 0.00 0.56 0.56 99 1009.6
20260507103055 10 95 1.6 1.6 0.00 0.56 0.56 99 1009.2
20260507102551 10 40 1.6 1.6 0.00 0.56 0.56 99 1009.2
20260507102047 11 20 3.2 6.4 0.00 0.56 0.56 99 1009.5
20260507101543 11 108 0.0 1.6 0.00 0.56 0.56 99 1009.1
20260507101039 11 63 1.6 4.8 0.18 0.56 0.56 99 1009.0
20260507100537 11 50 0.0 6.4 0.18 0.56 0.56 99 1008.7
20260507100035 11 335 3.2 6.4 0.00 0.53 0.53 99 1008.4
20260507095532 11 67 0.0 3.2 0.00 0.53 0.53 99 1008.9
20260507095029 11 30 4.8 6.4 0.13 0.53 0.53 99 1008.9
20260507094525 11 82 0.0 11.3 0.13 0.53 0.53 99 1008.5
20260507094022 11 148 0.0 1.6 0.36 0.51 0.51 99 1008.5
20260507093520 11 54 6.4 11.3 0.30 0.48 0.48 99 1008.2
20260507093018 11 149 1.6 1.6 0.43 0.46 0.46 99 1008.7
20260507092514 11 82 0.0 0.0 1.07 0.43 0.43 99 1008.8
20260507092011 11 149 1.6 3.2 0.61 0.33 0.33 99 1009.0
20260507091508 11 87 0.0 0.0 0.30 0.25 0.25 99 1008.4
20260507091004 11 87 0.0 0.0 0.48 0.23 0.23 99 1008.3
20260507090459 11 86 0.0 0.0 0.48 0.20 0.20 99 1008.4
20260507085956 11 119 0.0 0.0 0.00 0.13 0.13 99 1008.9
20260507085454 11 93 0.0 0.0 0.00 0.13 0.13 99 1008.7
20260507084950 11 141 0.0 1.6 0.13 0.13 0.13 99 1008.8
20260507084447 11 358 0.0 1.6 0.43 0.13 0.13 99 1008.9
20260507083944 11 150 0.0 1.6 0.48 0.10 0.10 99 1009.0
20260507083440 11 203 3.2 4.8 0.00 0.03 0.03 99 1009.4
20260507082937 11 127 0.0 3.2 0.00 0.03 0.03 99 1009.2
20260507082433 11 254 1.6 3.2 0.00 0.03 0.03 99 1009.2
20260507081930 11 140 0.0 1.6 0.00 0.03 0.03 99 1008.7
20260507081426 11 135 0.0 1.6 0.00 0.03 0.03 99 1008.2
20260507080923 11 137 0.0 1.6 0.00 0.03 0.03 99 1008.0
20260507080419 11 133 0.0 0.0 0.00 0.03 0.03 99 1007.5
20260507075914 11 129 0.0 0.0 0.00 0.03 0.03 99 1007.6
20260507075411 11 129 0.0 0.0 0.00 0.03 0.03 99 1007.9
20260507074908 11 129 0.0 0.0 0.00 0.03 0.03 99 1008.4
20260507074404 11 120 0.0 0.0 0.00 0.03 0.03 99 1008.1
20260507073902 11 118 0.0 0.0 0.00 0.03 0.03 99 1007.9
20260507073358 11 118 0.0 0.0 0.00 0.03 0.03 99 1008.1
20260507072855 11 119 0.0 0.0 0.00 0.03 0.03 99 1008.1
20260507072353 11 119 0.0 0.0 0.13 0.03 0.03 99 1008.3
20260507071850 11 92 0.0 0.0 0.00 0.00 0.00 99 1008.3
20260507071347 11 137 0.0 0.0 0.00 0.00 0.00 99 1008.2
20260507070843 11 120 0.0 1.6 0.00 0.00 0.00 99 1008.5
20260507070341 11 134 0.0 0.0 0.00 0.00 0.00 99 1008.6
20260507065838 11 133 0.0 0.0 0.00 0.00 0.00 99 1008.5
20260507065334 11 145 0.0 3.2 0.00 0.00 0.00 99 1008.6
20260507064831 11 218 3.2 3.2 0.00 0.00 0.00 99 1008.6
20260507064330 11 224 3.2 4.8 0.00 0.00 0.00 99 1008.3
20260507063827 11 174 1.6 3.2 0.00 0.00 0.00 99 1008.2
20260507063324 11 139 0.0 1.6 0.00 0.00 0.00 99 1008.5
20260507062821 11 342 3.2 3.2 0.00 0.00 0.00 99 1008.4
20260507062318 11 176 0.0 0.0 0.00 0.00 0.00 99 1008.6
20260507061816 11 159 1.6 3.2 0.00 0.00 0.00 99 1008.7
20260507061314 11 237 3.2 4.8 0.00 0.00 0.00 99 1008.7
20260507060812 11 245 4.8 6.4 0.00 0.00 0.00 99 1009.0
20260507060308 11 245 3.2 4.8 0.00 0.00 0.00 99 1008.9
20260507055805 11 185 3.2 4.8 0.00 0.00 0.00 99 1008.9
20260507055300 12 260 3.2 3.2 0.00 0.00 0.00 99 1009.3
20260507054756 12 139 0.0 1.6 0.00 0.00 0.00 99 1009.3
20260507054253 12 188 1.6 3.2 0.00 0.00 0.00 99 1009.2
20260507053750 12 233 3.2 4.8 0.00 0.00 0.00 99 1009.1
20260507053248 12 208 3.2 4.8 0.00 0.00 0.00 99 1009.4
20260507052747 12 133 0.0 4.8 0.00 0.00 0.00 99 1009.5
20260507052243 12 152 1.6 3.2 0.00 0.00 0.00 99 1009.4
20260507051741 12 154 0.0 0.0 0.00 0.00 0.00 99 1009.3
20260507051237 12 203 1.6 3.2 0.00 0.00 0.00 99 1009.5
20260507050734 12 177 1.6 3.2 0.00 0.00 0.00 99 1009.5
20260507050231 12 168 1.6 3.2 0.00 0.00 0.00 99 1009.7
20260507045728 12 179 3.2 11.3 0.00 0.00 0.00 99 1009.7
20260507045224 12 94 1.6 3.2 0.00 0.00 0.00 99 1009.6
20260507044722 12 167 0.0 0.0 0.00 0.00 0.00 99 1009.6
20260507044218 12 183 1.6 3.2 0.00 0.00 0.00 99 1009.6
20260507043714 12 159 1.6 3.2 0.00 0.00 0.00 99 1009.5
20260507043211 12 63 3.2 3.2 0.00 0.00 0.00 99 1009.5
20260507042708 12 171 1.6 1.6 0.00 0.00 0.00 99 1009.5
20260507042202 12 165 1.6 6.4 0.00 0.00 0.00 99 1009.7
20260507041700 12 129 0.0 6.4 0.00 0.00 0.00 99 1009.7
20260507041156 12 229 3.2 6.4 0.00 0.00 0.00 99 1009.9
20260507040653 12 231 4.8 6.4 0.00 0.00 0.00 99 1009.9
20260507040150 12 98 1.6 6.4 0.00 0.00 0.00 99 1010.1
20260507035646 12 153 4.8 9.7 0.00 0.71 0.71 99 1010.0
20260507035142 12 129 0.0 4.8 0.00 0.71 0.71 99 1010.1
20260507034639 12 136 0.0 3.2 0.00 0.71 0.71 99 1009.9
20260507034136 13 168 0.0 3.2 0.00 0.71 0.71 99 1010.0
20260507033635 13 277 4.8 9.7 0.00 0.71 0.71 99 1010.0
20260507033131 13 201 3.2 12.9 0.00 0.71 0.71 99 1010.1
20260507032629 13 173 3.2 9.7 0.00 0.71 0.71 99 1010.1
20260507032125 13 174 1.6 6.4 0.00 0.71 0.71 99 1009.9
20260507031622 13 188 1.6 4.8 0.00 0.71 0.71 99 1009.8
20260507031118 13 241 4.8 9.7 0.00 0.71 0.71 99 1009.8
20260507030615 13 164 3.2 6.4 0.00 0.71 0.71 99 1009.8
20260507030113 13 201 3.2 9.7 0.00 0.71 0.71 99 1009.8
20260507025610 13 200 1.6 4.8 0.00 0.71 0.71 99 1009.7
20260507025107 13 182 0.0 4.8 0.00 0.71 0.71 99 1010.0
20260507024605 13 135 1.6 4.8 0.00 0.71 0.71 99 1010.0
20260507024102 13 134 1.6 6.4 0.00 0.71 0.71 99 1010.1
20260507023557 13 138 0.0 4.8 0.00 0.71 0.71 99 1010.1
20260507023055 13 173 4.8 6.4 0.00 0.71 0.71 99 1010.5
20260507022551 13 149 3.2 9.7 0.00 0.71 0.71 99 1010.3
20260507022046 13 145 1.6 6.4 0.00 0.71 0.71 99 1010.6
20260507021543 13 214 3.2 4.8 0.00 0.71 0.71 99 1010.5
20260507021039 13 41 3.2 4.8 0.00 0.71 0.71 99 1010.7
20260507020537 13 210 1.6 6.4 0.00 0.71 0.71 99 1010.6
20260507020034 13 286 4.8 6.4 0.00 0.71 0.71 99 1010.7
20260507015532 13 139 1.6 6.4 0.00 0.71 0.71 99 1010.5
20260507015029 13 240 4.8 9.7 0.00 0.71 0.71 99 1010.6
20260507014526 13 269 4.8 11.3 0.00 0.71 0.71 99 1010.7
20260507014021 13 201 8.0 11.3 0.00 0.71 0.71 99 1010.8
20260507013518 13 203 6.4 9.7 0.00 0.71 0.71 99 1010.8
20260507013016 13 258 4.8 11.3 0.00 0.71 0.71 99 1010.9
20260507012512 13 209 1.6 6.4 0.00 0.71 0.71 99 1010.8
20260507012009 13 188 6.4 11.3 0.00 0.71 0.71 99 1011.0
20260507011506 13 259 4.8 12.9 0.00 0.71 0.71 99 1010.7
20260507011002 13 192 6.4 14.5 0.00 0.71 0.71 99 1010.8
20260507010456 13 182 3.2 4.8 0.00 0.71 0.71 99 1010.8
20260507005953 13 188 1.6 9.7 0.18 0.71 0.71 99 1010.8
20260507005451 14 169 3.2 9.7 0.18 0.71 0.71 99 1010.6
20260507004947 14 123 1.6 4.8 0.00 0.69 0.69 99 1010.8
20260507004444 14 243 3.2 6.4 0.00 0.69 0.69 99 1010.7
20260507003942 13 114 1.6 9.7 0.00 0.69 0.69 99 1010.6
20260507003437 13 224 1.6 4.8 0.13 0.69 0.69 99 1010.7
20260507002932 13 122 1.6 4.8 0.30 0.69 0.69 99 1010.7
20260507002428 13 129 0.0 3.2 0.30 0.66 0.66 99 1010.5
20260507001926 13 174 3.2 4.8 0.30 0.64 0.64 99 1010.7
20260507001422 13 329 1.6 4.8 0.30 0.61 0.61 99 1010.8
20260507000920 13 130 3.2 14.5 0.18 0.56 0.56 99 1010.8
20260507000415 13 173 3.2 4.8 0.18 0.56 0.56 99 1010.7
20260506235911 13 183 1.6 4.8 0.00 0.53 0.53 99 1010.6
20260506235409 13 168 1.6 3.2 0.18 0.53 0.53 99 1010.8
20260506234904 13 180 6.4 9.7 0.30 0.53 0.53 99 1010.7
20260506234402 13 145 1.6 3.2 0.30 0.51 0.51 99 1010.7
20260506233859 13 158 1.6 4.8 0.48 0.48 0.48 99 1010.6
20260506233355 13 167 3.2 6.4 0.43 0.46 0.46 99 1010.9
20260506232852 13 119 3.2 3.2 0.30 0.41 0.41 99 1010.7
20260506232348 13 148 1.6 3.2 0.30 0.38 0.38 98 1011.0
20260506231844 13 300 3.2 12.9 0.30 0.36 0.36 98 1010.9
20260506231342 13 170 3.2 3.2 0.30 0.33 0.33 98 1011.3
20260506230839 13 146 3.2 6.4 0.18 0.28 0.28 98 1011.4
20260506230336 13 124 1.6 6.4 0.48 0.28 0.28 98 1011.5
20260506225832 13 120 1.6 3.2 0.13 0.23 0.23 98 1011.2
20260506225330 13 147 3.2 4.8 0.18 0.20 0.20 98 1011.2
20260506224827 14 135 0.0 4.8 0.30 0.20 0.20 97 1011.3
20260506224324 14 132 0.0 3.2 0.43 0.18 0.18 97 1011.4
20260506223820 14 212 3.2 4.8 0.79 0.15 0.15 96 1011.4
20260506223315 14 184 4.8 6.4 0.48 0.10 0.10 95 1011.5
20260506222813 14 167 1.6 9.7 0.00 0.03 0.03 94 1011.4
20260506222308 14 104 4.8 12.9 0.00 0.03 0.03 94 1011.4
20260506221806 14 160 3.2 3.2 0.13 0.03 0.03 95 1011.3
20260506221304 15 168 3.2 4.8 0.13 0.03 0.03 94 1011.3
20260506220802 15 133 1.6 3.2 0.00 0.00 0.00 93 1011.5
20260506220302 15 159 3.2 6.4 0.00 0.00 0.00 92 1011.4
20260506215759 15 98 3.2 6.4 0.00 0.00 0.00 87 1011.2
20260506215254 15 145 3.2 4.8 0.00 0.00 0.00 86 1011.6
20260506214750 16 127 1.6 9.7 0.00 0.00 0.00 84 1011.4
20260506214248 16 179 3.2 4.8 0.00 0.00 0.00 84 1011.5
20260506213746 16 230 6.4 9.7 0.00 0.00 0.00 84 1011.5
20260506213243 15 159 3.2 11.3 0.00 0.00 0.00 85 1011.7
20260506212740 15 202 4.8 11.3 0.00 0.00 0.00 86 1011.5
20260506212236 15 198 4.8 11.3 0.00 0.00 0.00 85 1011.8
20260506211731 16 182 6.4 12.9 0.00 0.00 0.00 85 1011.7
20260506211228 16 46 3.2 9.7 0.00 0.00 0.00 83 1011.7
20260506210725 16 137 1.6 4.8 0.00 0.00 0.00 81 1011.7
20260506210221 16 156 4.8 6.4 0.00 0.00 0.00 81 1011.7
20260506205719 16 160 6.4 11.3 0.00 0.00 0.00 81 1011.8
20260506205214 16 155 3.2 6.4 0.00 0.00 0.00 81 1011.5
20260506204711 16 139 3.2 4.8 0.00 0.00 0.00 82 1011.7
20260506204209 16 162 1.6 6.4 0.00 0.00 0.00 82 1011.6
20260506203707 16 174 6.4 11.3 0.00 0.00 0.00 81 1012.0
20260506203203 16 196 1.6 9.7 0.00 0.00 0.00 80 1012.1
20260506202701 16 182 3.2 4.8 0.00 0.00 0.00 80 1012.0
20260506202157 16 187 6.4 11.3 0.00 0.00 0.00 79 1012.1
20260506201654 17 196 6.4 9.7 0.00 0.00 0.00 79 1011.9
20260506201150 17 177 3.2 14.5 0.00 0.00 0.00 78 1012.0
20260506200648 17 191 3.2 14.5 0.00 0.00 0.00 78 1012.3
20260506200144 16 184 3.2 11.3 0.00 0.00 0.00 78 1012.2
20260506195641 16 201 4.8 6.4 0.00 0.00 0.00 79 1012.3
20260506195137 16 176 3.2 4.8 0.00 0.00 0.00 78 1012.3
20260506194635 17 191 4.8 9.7 0.00 0.00 0.00 77 1012.5
20260506194131 17 104 1.6 4.8 0.00 0.00 0.00 77 1012.7
20260506193629 16 139 1.6 11.3 0.00 0.00 0.00 78 1012.6
20260506193126 16 275 4.8 9.7 0.00 0.00 0.00 78 1012.6
20260506192622 16 224 1.6 6.4 0.00 0.00 0.00 79 1012.6
20260506192118 16 178 1.6 3.2 0.00 0.00 0.00 78 1012.6
20260506191615 16 172 4.8 4.8 0.00 0.00 0.00 78 1012.7
20260506191111 16 196 3.2 9.7 0.00 0.00 0.00 78 1012.5
20260506190609 16 249 6.4 6.4 0.00 0.00 0.00 78 1012.5
20260506190105 17 191 4.8 6.4 0.00 0.00 0.00 78 1012.6
20260506185603 17 180 1.6 14.5 0.00 0.00 0.00 77 1012.6
20260506185059 17 155 3.2 4.8 0.00 0.00 0.00 75 1012.8
20260506184556 17 228 4.8 16.1 0.00 0.00 0.00 75 1012.8
20260506184054 17 234 6.4 9.7 0.00 0.00 0.00 75 1013.1
20260506183549 17 167 3.2 11.3 0.00 0.00 0.00 75 1013.1
20260506183046 17 236 1.6 6.4 0.00 0.00 0.00 75 1013.1
20260506182544 18 302 3.2 9.7 0.00 0.00 0.00 73 1013.3
20260506182041 18 188 3.2 6.4 0.00 0.00 0.00 74 1013.3
20260506181539 18 181 1.6 6.4 0.00 0.00 0.00 74 1013.5
20260506181035 18 175 3.2 9.7 0.00 0.00 0.00 73 1013.5
20260506180532 18 156 4.8 6.4 0.00 0.00 0.00 72 1013.6
20260506180028 19 221 4.8 6.4 0.00 0.00 0.00 72 1013.7
20260506175525 19 157 1.6 9.7 0.00 0.00 0.00 71 1013.7
20260506175021 20 127 1.6 9.7 0.00 0.00 0.00 69 1013.8
20260506174520 20 233 3.2 4.8 0.00 0.00 0.00 67 1013.6
20260506174016 20 129 1.6 11.3 0.00 0.00 0.00 70 1013.8
20260506173514 20 186 3.2 12.9 0.00 0.00 0.00 70 1013.8
20260506173010 20 165 6.4 11.3 0.00 0.00 0.00 68 1014.0
20260506172508 20 241 4.8 9.7 0.00 0.00 0.00 68 1013.7
20260506172004 20 132 3.2 6.4 0.00 0.00 0.00 68 1014.0
20260506171501 20 209 4.8 9.7 0.00 0.00 0.00 68 1014.0
20260506170959 21 183 4.8 9.7 0.00 0.00 0.00 67 1014.1
20260506170455 20 97 3.2 4.8 0.00 0.00 0.00 70 1014.1
20260506165954 19 250 4.8 6.4 0.00 0.00 0.00 71 1014.3
20260506165452 20 210 4.8 14.5 0.00 0.00 0.00 71 1014.3
20260506164948 19 181 3.2 12.9 0.00 0.00 0.00 72 1014.4
20260506164445 19 173 3.2 4.8 0.00 0.00 0.00 72 1014.4
20260506163943 19 192 3.2 6.4 0.00 0.00 0.00 72 1014.4
20260506163437 19 121 1.6 9.7 0.00 0.00 0.00 71 1014.6
20260506162932 20 214 3.2 4.8 0.00 0.00 0.00 69 1014.5
20260506162430 20 213 4.8 6.4 0.00 0.00 0.00 70 1014.4
20260506161927 20 147 3.2 11.3 0.00 0.00 0.00 70 1014.7
20260506161426 20 81 3.2 12.9 0.00 0.00 0.00 68 1014.7
20260506160923 20 139 3.2 9.7 0.00 0.00 0.00 67 1014.8
20260506160420 21 104 3.2 6.4 0.00 0.00 0.00 66 1014.8
20260506155918 20 152 3.2 4.8 0.00 0.00 0.00 66 1015.1
20260506155415 20 262 4.8 11.3 0.00 0.00 0.00 66 1015.1
20260506153536 20 190 6.4 11.3 0.00 0.00 0.00 70 1015.3
20260506153034 20 197 3.2 4.8 0.00 0.00 0.00 68 1015.4
20260506152531 21 184 3.2 9.7 0.00 0.00 0.00 66 1015.5
20260506152029 20 205 3.2 9.7 0.00 0.00 0.00 69 1015.3